Location: Unspecified
(51.5147°N, 7.4673°E)
Time: 06:05:25
(UTC+01:00)

A-11 Canister half - Pass Details

Date: 16 February 2026
Orbit: 1512 x 1687 km, 47.2° (Epoch: 5 March)

Event Time Altitude Azimuth Distance (km) Brightness Sun altitude
Rises 00:39:33 0° 260° (W) 4,920 - -50.9°
Reaches altitude 10° 00:42:45 10° 258° (WSW) 3,918 - -50.9°
Maximum altitude 00:52:41 70° 178° (S) 1,714 - -50.9°
Drops below altitude 10° 01:02:16 10° 98° (E) 3,787 - -50.7°
Sets 01:05:19 0° 96° (E) 4,749 - -50.7°
